Time,TemperatureF,DewpointF,PressureIn,WindDirection,WindDirectionDegrees,WindSpeedMPH,WindSpeedGustMPH,Humidity,HourlyPrecipIn,Conditions,Clouds,dailyrainin,SoftwareType,DateUTC
2014-01-08 00:00:00,19.8,4.6,30.51,West,274,0.0,-999.0,51,0.00,,,0.00,WeatherSnoop3.0,2014-01-08 05:00:00,
2014-01-08 00:01:00,19.8,4.6,30.51,West,274,0.0,-999.0,51,0.00,,,0.00,WeatherSnoop3.0,2014-01-08 05:01:00,
2014-01-08 00:02:00,19.8,5.1,30.51,West,274,1.0,-999.0,52,0.00,,,0.00,WeatherSnoop3.0,2014-01-08 05:02:00,
2014-01-08 00:06:00,19.8,4.6,30.51,West,274,0.0,-999.0,51,0.00,,,0.00,WeatherSnoop3.0,2014-01-08 05:06:00,
2014-01-08 00:11:00,19.7,5.4,30.51,West,274,0.0,-999.0,53,0.00,,,0.00,WeatherSnoop3.0,2014-01-08 05:11:00,
2014-01-08 00:17:00,19.7,5.4,30.51,West,274,0.0,-999.0,53,0.00,,,0.00,WeatherSnoop3.0,2014-01-08 05:17:00,
2014-01-08 00:22:00,19.6,4.9,30.51,West,274,0.0,-999.0,52,0.00,,,0.00,WeatherSnoop3.0,2014-01-08 05:22:00,
2014-01-08 00:27:00,19.4,4.7,30.51,West,274,0.0,-999.0,52,0.00,,,0.00,WeatherSnoop3.0,2014-01-08 05:27:00,
2014-01-08 00:32:00,19.2,4.9,30.51,West,274,0.0,-999.0,53,0.00,,,0.00,WeatherSnoop3.0,2014-01-08 05:32:00,
2014-01-08 00:37:00,19.1,5.6,30.51,West,274,0.0,-999.0,55,0.00,,,0.00,WeatherSnoop3.0,2014-01-08 05:37:00,
2014-01-08 00:42:00,19.1,5.6,30.51,West,276,0.0,-999.0,55,0.00,,,0.00,WeatherSnoop3.0,2014-01-08 05:42:00,
2014-01-08 00:47:00,19.1,5.6,30.51,West,274,1.0,-999.0,55,0.00,,,0.00,WeatherSnoop3.0,2014-01-08 05:47:00,
2014-01-08 00:52:00,19.0,5.1,30.51,West,274,1.0,-999.0,54,0.00,,,0.00,WeatherSnoop3.0,2014-01-08 05:52:00,
2014-01-08 00:57:00,19.0,5.5,30.51,West,273,0.0,-999.0,55,0.00,,,0.00,WeatherSnoop3.0,2014-01-08 05:57:00,
2014-01-08 01:02:00,19.0,5.5,30.51,West,274,1.0,-999.0,55,0.00,,,0.00,WeatherSnoop3.0,2014-01-08 06:02:00,
2014-01-08 01:07:00,19.0,5.5,30.51,West,276,0.0,-999.0,55,0.00,,,0.00,WeatherSnoop3.0,2014-01-08 06:07:00,
2014-01-08 01:12:00,19.1,5.6,30.51,West,276,1.0,-999.0,55,0.00,,,0.00,WeatherSnoop3.0,2014-01-08 06:12:00,
2014-01-08 01:17:00,19.2,5.7,30.51,West,274,0.0,-999.0,55,0.00,,,0.00,WeatherSnoop3.0,2014-01-08 06:17:00,
2014-01-08 01:23:00,19.4,5.9,30.51,West,263,1.0,-999.0,55,0.00,,,0.00,WeatherSnoop3.0,2014-01-08 06:23:00,
2014-01-08 01:28:00,19.4,5.9,30.51,West,267,1.0,-999.0,55,0.00,,,0.00,WeatherSnoop3.0,2014-01-08 06:28:00,
2014-01-08 01:33:00,19.4,5.9,30.51,West,268,1.0,-999.0,55,0.00,,,0.00,WeatherSnoop3.0,2014-01-08 06:33:00,
2014-01-08 01:38:00,19.4,6.3,30.51,West,268,1.0,-999.0,56,0.00,,,0.00,WeatherSnoop3.0,2014-01-08 06:38:00,
2014-01-08 01:43:00,19.3,5.8,30.51,West,269,1.0,-999.0,55,0.00,,,0.00,WeatherSnoop3.0,2014-01-08 06:43:00,
2014-01-08 01:48:00,19.3,5.8,30.51,West,269,0.0,-999.0,55,0.00,,,0.00,WeatherSnoop3.0,2014-01-08 06:48:00,
2014-01-08 01:53:00,19.3,5.8,30.51,West,271,1.0,-999.0,55,0.00,,,0.00,WeatherSnoop3.0,2014-01-08 06:53:00,
2014-01-08 01:58:00,19.3,6.2,30.52,West,272,0.0,-999.0,56,0.00,,,0.00,WeatherSnoop3.0,2014-01-08 06:58:00,
2014-01-08 02:03:00,19.4,6.3,30.52,West,272,0.0,-999.0,56,0.00,,,0.00,WeatherSnoop3.0,2014-01-08 07:03:00,
2014-01-08 02:08:00,19.4,6.3,30.51,West,271,0.0,-999.0,56,0.00,,,0.00,WeatherSnoop3.0,2014-01-08 07:08:00,
2014-01-08 02:13:00,19.5,6.4,30.52,West,272,0.0,-999.0,56,0.00,,,0.00,WeatherSnoop3.0,2014-01-08 07:13:00,
2014-01-08 02:18:00,19.5,6.4,30.52,West,272,0.0,-999.0,56,0.00,,,0.00,WeatherSnoop3.0,2014-01-08 07:18:00,
2014-01-08 02:23:00,19.4,5.9,30.52,West,272,0.0,-999.0,55,0.00,,,0.00,WeatherSnoop3.0,2014-01-08 07:23:00,
2014-01-08 02:29:00,19.6,6.9,30.52,West,272,0.0,-999.0,57,0.00,,,0.00,WeatherSnoop3.0,2014-01-08 07:29:00,
2014-01-08 02:34:00,19.6,6.5,30.52,West,273,0.0,-999.0,56,0.00,,,0.00,WeatherSnoop3.0,2014-01-08 07:34:00,
2014-01-08 02:39:00,19.5,7.2,30.52,West,272,0.0,-999.0,58,0.00,,,0.00,WeatherSnoop3.0,2014-01-08 07:39:00,
2014-01-08 02:44:00,19.2,7.3,30.53,West,272,0.0,-999.0,59,0.00,,,0.00,WeatherSnoop3.0,2014-01-08 07:44:00,
2014-01-08 02:49:00,19.1,7.9,30.53,West,272,0.0,-999.0,61,0.00,,,0.00,WeatherSnoop3.0,2014-01-08 07:49:00,
2014-01-08 02:54:00,19.0,7.8,30.53,West,272,0.0,-999.0,61,0.00,,,0.00,WeatherSnoop3.0,2014-01-08 07:54:00,
2014-01-08 02:59:00,18.8,8.0,30.53,West,273,0.0,-999.0,62,0.00,,,0.00,WeatherSnoop3.0,2014-01-08 07:59:00,
2014-01-08 03:04:00,18.8,8.0,30.53,West,273,0.0,-999.0,62,0.00,,,0.00,WeatherSnoop3.0,2014-01-08 08:04:00,
2014-01-08 03:09:00,18.7,7.9,30.54,West,273,0.0,-999.0,62,0.00,,,0.00,WeatherSnoop3.0,2014-01-08 08:09:00,
2014-01-08 03:14:00,18.7,7.9,30.54,West,273,0.0,-999.0,62,0.00,,,0.00,WeatherSnoop3.0,2014-01-08 08:14:00,
2014-01-08 03:19:00,18.7,8.2,30.54,West,273,0.0,-999.0,63,0.00,,,0.00,WeatherSnoop3.0,2014-01-08 08:19:00,
2014-01-08 03:24:00,18.6,8.1,30.54,West,273,0.0,-999.0,63,0.00,,,0.00,WeatherSnoop3.0,2014-01-08 08:24:00,
2014-01-08 03:29:00,18.7,8.6,30.54,West,273,0.0,-999.0,64,0.00,,,0.00,WeatherSnoop3.0,2014-01-08 08:29:00,
2014-01-08 03:34:00,18.7,8.9,30.54,West,272,0.0,-999.0,65,0.00,,,0.00,WeatherSnoop3.0,2014-01-08 08:34:00,
2014-01-08 03:39:00,18.6,8.8,30.54,West,272,0.0,-999.0,65,0.00,,,0.00,WeatherSnoop3.0,2014-01-08 08:39:00,
2014-01-08 03:45:00,18.5,8.7,30.54,West,272,0.0,-999.0,65,0.00,,,0.00,WeatherSnoop3.0,2014-01-08 08:45:00,
2014-01-08 03:50:00,18.2,8.8,30.54,West,273,0.0,-999.0,66,0.00,,,0.00,WeatherSnoop3.0,2014-01-08 08:50:00,
2014-01-08 03:55:00,18.1,9.0,30.54,West,272,0.0,-999.0,67,0.00,,,0.00,WeatherSnoop3.0,2014-01-08 08:55:00,
2014-01-08 04:00:00,17.8,9.1,30.55,West,272,0.0,-999.0,68,0.00,,,0.00,WeatherSnoop3.0,2014-01-08 09:00:00,
2014-01-08 04:05:00,17.8,9.1,30.54,West,272,0.0,-999.0,68,0.00,,,0.00,WeatherSnoop3.0,2014-01-08 09:05:00,
2014-01-08 04:10:00,17.7,9.3,30.54,West,272,0.0,-999.0,69,0.00,,,0.00,WeatherSnoop3.0,2014-01-08 09:10:00,
2014-01-08 04:15:00,17.6,9.2,30.54,West,273,0.0,-999.0,69,0.00,,,0.00,WeatherSnoop3.0,2014-01-08 09:15:00,
2014-01-08 04:20:00,17.5,9.4,30.54,West,273,0.0,-999.0,70,0.00,,,0.00,WeatherSnoop3.0,2014-01-08 09:20:00,
2014-01-08 04:25:00,17.4,8.7,30.54,West,272,0.0,-999.0,68,0.00,,,0.00,WeatherSnoop3.0,2014-01-08 09:25:00,
2014-01-08 04:30:00,17.3,9.2,30.54,West,273,0.0,-999.0,70,0.00,,,0.00,WeatherSnoop3.0,2014-01-08 09:30:00,
2014-01-08 04:35:00,17.2,9.4,30.54,West,272,0.0,-999.0,71,0.00,,,0.00,WeatherSnoop3.0,2014-01-08 09:35:00,
2014-01-08 04:40:00,17.0,9.2,30.54,West,273,0.0,-999.0,71,0.00,,,0.00,WeatherSnoop3.0,2014-01-08 09:40:00,
2014-01-08 04:45:00,16.9,9.2,30.54,West,272,0.0,-999.0,71,0.00,,,0.00,WeatherSnoop3.0,2014-01-08 09:45:00,
2014-01-08 04:51:00,16.9,9.8,30.54,West,273,0.0,-999.0,73,0.00,,,0.00,WeatherSnoop3.0,2014-01-08 09:51:00,
2014-01-08 04:56:00,17.4,10.3,30.55,West,273,1.0,-999.0,73,0.00,,,0.00,WeatherSnoop3.0,2014-01-08 09:56:00,
2014-01-08 05:01:00,17.9,10.1,30.55,West,277,0.0,-999.0,71,0.00,,,0.00,WeatherSnoop3.0,2014-01-08 10:01:00,
2014-01-08 05:06:00,18.5,10.4,30.55,West,277,0.0,-999.0,70,0.00,,,0.00,WeatherSnoop3.0,2014-01-08 10:06:00,
2014-01-08 05:11:00,18.6,9.2,30.55,West,274,1.0,-999.0,66,0.00,,,0.00,WeatherSnoop3.0,2014-01-08 10:11:00,
2014-01-08 05:16:00,18.7,8.6,30.55,West,277,1.0,-999.0,64,0.00,,,0.00,WeatherSnoop3.0,2014-01-08 10:16:00,
2014-01-08 05:21:00,18.9,8.8,30.55,West,277,1.0,-999.0,64,0.00,,,0.00,WeatherSnoop3.0,2014-01-08 10:21:00,
2014-01-08 05:26:00,19.2,8.7,30.55,West,278,1.0,-999.0,63,0.00,,,0.00,WeatherSnoop3.0,2014-01-08 10:26:00,
2014-01-08 05:31:00,19.4,9.2,30.55,West,278,1.0,-999.0,64,0.00,,,0.00,WeatherSnoop3.0,2014-01-08 10:31:00,
2014-01-08 05:36:00,19.5,9.7,30.54,WNW,285,1.0,-999.0,65,0.00,,,0.00,WeatherSnoop3.0,2014-01-08 10:36:00,
2014-01-08 05:41:00,19.7,9.5,30.54,WNW,287,1.0,-999.0,64,0.00,,,0.00,WeatherSnoop3.0,2014-01-08 10:41:00,
2014-01-08 05:46:00,19.8,9.3,30.55,WNW,287,0.0,-999.0,63,0.00,,,0.00,WeatherSnoop3.0,2014-01-08 10:46:00,
2014-01-08 05:51:00,19.4,9.9,30.55,WNW,287,0.0,-999.0,66,0.00,,,0.00,WeatherSnoop3.0,2014-01-08 10:51:00,
2014-01-08 05:56:00,18.8,9.4,30.55,WNW,287,0.0,-999.0,66,0.00,,,0.00,WeatherSnoop3.0,2014-01-08 10:56:00,
2014-01-08 06:01:00,18.4,8.3,30.55,WNW,287,0.0,-999.0,64,0.00,,,0.00,WeatherSnoop3.0,2014-01-08 11:01:00,
2014-01-08 06:06:00,18.1,8.3,30.55,WNW,287,0.0,-999.0,65,0.00,,,0.00,WeatherSnoop3.0,2014-01-08 11:06:00,
2014-01-08 06:11:00,17.9,8.5,30.55,WNW,287,0.0,-999.0,66,0.00,,,0.00,WeatherSnoop3.0,2014-01-08 11:11:00,
2014-01-08 06:16:00,17.8,8.4,30.55,WNW,287,0.0,-999.0,66,0.00,,,0.00,WeatherSnoop3.0,2014-01-08 11:16:00,
2014-01-08 06:22:00,17.8,9.1,30.55,WNW,287,0.0,-999.0,68,0.00,,,0.00,WeatherSnoop3.0,2014-01-08 11:22:00,
2014-01-08 06:27:00,18.0,9.6,30.55,WNW,287,0.0,-999.0,69,0.00,,,0.00,WeatherSnoop3.0,2014-01-08 11:27:00,
2014-01-08 06:32:00,18.4,10.0,30.55,WNW,287,0.0,-999.0,69,0.00,,,0.00,WeatherSnoop3.0,2014-01-08 11:32:00,
2014-01-08 06:37:00,18.3,9.9,30.56,WNW,288,0.0,-999.0,69,0.00,,,0.00,WeatherSnoop3.0,2014-01-08 11:37:00,
2014-01-08 06:42:00,18.7,10.2,30.56,WNW,288,0.0,-999.0,69,0.00,,,0.00,WeatherSnoop3.0,2014-01-08 11:42:00,
2014-01-08 06:47:00,18.7,9.9,30.56,WNW,288,0.0,-999.0,68,0.00,,,0.00,WeatherSnoop3.0,2014-01-08 11:47:00,
2014-01-08 06:52:00,18.3,9.9,30.56,WNW,288,0.0,-999.0,69,0.00,,,0.00,WeatherSnoop3.0,2014-01-08 11:52:00,
2014-01-08 06:57:00,17.8,9.7,30.56,WNW,288,0.0,-999.0,70,0.00,,,0.00,WeatherSnoop3.0,2014-01-08 11:57:00,
2014-01-08 07:02:00,17.5,8.8,30.56,WNW,288,0.0,-999.0,68,0.00,,,0.00,WeatherSnoop3.0,2014-01-08 12:02:00,
2014-01-08 07:07:00,17.4,8.3,30.56,WNW,288,0.0,-999.0,67,0.00,,,0.00,WeatherSnoop3.0,2014-01-08 12:07:00,
2014-01-08 07:12:00,17.3,8.3,30.57,WNW,288,0.0,-999.0,67,0.00,,,0.00,WeatherSnoop3.0,2014-01-08 12:12:00,
2014-01-08 07:17:00,17.3,8.9,30.57,WNW,288,0.0,-999.0,69,0.00,,,0.00,WeatherSnoop3.0,2014-01-08 12:17:00,
2014-01-08 07:22:00,17.1,9.3,30.57,WNW,288,0.0,-999.0,71,0.00,,,0.00,WeatherSnoop3.0,2014-01-08 12:22:00,
2014-01-08 07:28:00,16.9,9.2,30.57,WNW,288,0.0,-999.0,71,0.00,,,0.00,WeatherSnoop3.0,2014-01-08 12:28:00,
2014-01-08 07:33:00,16.7,9.3,30.58,WNW,287,0.0,-999.0,72,0.00,,,0.00,WeatherSnoop3.0,2014-01-08 12:33:00,
2014-01-08 07:38:00,16.6,9.8,30.58,WNW,287,0.0,-999.0,74,0.00,,,0.00,WeatherSnoop3.0,2014-01-08 12:38:00,
2014-01-08 07:43:00,16.5,9.7,30.58,WNW,287,0.0,-999.0,74,0.00,,,0.00,WeatherSnoop3.0,2014-01-08 12:43:00,
2014-01-08 07:48:00,16.4,9.9,30.59,WNW,287,0.0,-999.0,75,0.00,,,0.00,WeatherSnoop3.0,2014-01-08 12:48:00,
2014-01-08 07:53:00,16.4,10.2,30.59,WNW,286,0.0,-999.0,76,0.00,,,0.00,WeatherSnoop3.0,2014-01-08 12:53:00,
2014-01-08 07:58:00,16.6,11.0,30.59,WNW,287,0.0,-999.0,78,0.00,,,0.00,WeatherSnoop3.0,2014-01-08 12:58:00,
2014-01-08 08:03:00,16.7,11.1,30.59,WNW,287,0.0,-999.0,78,0.00,,,0.00,WeatherSnoop3.0,2014-01-08 13:03:00,
2014-01-08 08:08:00,17.0,11.3,30.59,WNW,287,0.0,-999.0,78,0.00,,,0.00,WeatherSnoop3.0,2014-01-08 13:08:00,
2014-01-08 08:13:00,17.4,11.4,30.59,South,174,0.0,-999.0,77,0.00,,,0.00,WeatherSnoop3.0,2014-01-08 13:13:00,
2014-01-08 08:18:00,17.9,11.6,30.60,South,174,0.0,-999.0,76,0.00,,,0.00,WeatherSnoop3.0,2014-01-08 13:18:00,
2014-01-08 08:23:00,18.5,11.0,30.60,South,174,0.0,-999.0,72,0.00,,,0.00,WeatherSnoop3.0,2014-01-08 13:23:00,
2014-01-08 08:28:00,19.0,11.2,30.60,South,174,0.0,-999.0,71,0.00,,,0.00,WeatherSnoop3.0,2014-01-08 13:28:00,
2014-01-08 08:33:00,19.6,11.8,30.60,SE,141,1.0,-999.0,71,0.00,,,0.00,WeatherSnoop3.0,2014-01-08 13:33:00,
2014-01-08 08:39:00,20.2,12.0,30.61,SE,134,1.0,-999.0,70,0.00,,,0.00,WeatherSnoop3.0,2014-01-08 13:39:00,
2014-01-08 08:44:00,20.7,12.2,30.61,SSE,155,0.0,-999.0,69,0.00,,,0.00,WeatherSnoop3.0,2014-01-08 13:44:00,
2014-01-08 08:49:00,21.3,12.1,30.61,SSE,160,1.0,-999.0,67,0.00,,,0.00,WeatherSnoop3.0,2014-01-08 13:49:00,
2014-01-08 08:54:00,21.9,11.6,30.61,SSE,159,2.0,-999.0,64,0.00,,,0.00,WeatherSnoop3.0,2014-01-08 13:54:00,
2014-01-08 08:59:00,22.4,11.7,30.61,ESE,122,1.0,-999.0,63,0.00,,,0.00,WeatherSnoop3.0,2014-01-08 13:59:00,
2014-01-08 09:04:00,22.8,11.0,30.62,SSE,168,2.0,-999.0,60,0.00,,,0.00,WeatherSnoop3.0,2014-01-08 14:04:00,
2014-01-08 09:09:00,23.0,10.8,30.62,SE,131,2.0,-999.0,59,0.00,,,0.00,WeatherSnoop3.0,2014-01-08 14:09:00,
2014-01-08 09:14:00,23.3,10.7,30.62,South,181,1.0,-999.0,58,0.00,,,0.00,WeatherSnoop3.0,2014-01-08 14:14:00,
2014-01-08 09:19:00,23.8,12.0,30.62,SE,146,1.0,-999.0,60,0.00,,,0.00,WeatherSnoop3.0,2014-01-08 14:19:00,
2014-01-08 09:25:00,24.3,11.7,30.62,SE,136,0.0,-999.0,58,0.00,,,0.00,WeatherSnoop3.0,2014-01-08 14:25:00,
2014-01-08 09:30:00,24.8,12.5,30.62,East,89,1.0,-999.0,59,0.00,,,0.00,WeatherSnoop3.0,2014-01-08 14:30:00,
2014-01-08 09:35:00,24.9,11.5,30.63,SE,136,1.0,-999.0,56,0.00,,,0.00,WeatherSnoop3.0,2014-01-08 14:35:00,
2014-01-08 09:40:00,25.0,11.1,30.63,ENE,72,0.0,-999.0,55,0.00,,,0.00,WeatherSnoop3.0,2014-01-08 14:40:00,
2014-01-08 09:45:00,25.4,11.9,30.63,SSE,150,2.0,-999.0,56,0.00,,,0.00,WeatherSnoop3.0,2014-01-08 14:45:00,
2014-01-08 09:50:00,25.7,11.8,30.64,ESE,120,2.0,-999.0,55,0.00,,,0.00,WeatherSnoop3.0,2014-01-08 14:50:00,
2014-01-08 09:55:00,25.8,11.5,30.64,SSE,147,1.0,-999.0,54,0.00,,,0.00,WeatherSnoop3.0,2014-01-08 14:55:00,
2014-01-08 10:00:00,26.2,11.9,30.64,SE,133,1.0,-999.0,54,0.00,,,0.00,WeatherSnoop3.0,2014-01-08 15:00:00,
2014-01-08 10:05:00,26.3,11.5,30.64,ESE,114,1.0,-999.0,53,0.00,,,0.00,WeatherSnoop3.0,2014-01-08 15:05:00,
2014-01-08 10:10:00,26.4,11.6,30.64,South,174,2.0,-999.0,53,0.00,,,0.00,WeatherSnoop3.0,2014-01-08 15:10:00,
2014-01-08 10:15:00,26.9,12.1,30.64,SE,134,1.0,-999.0,53,0.00,,,0.00,WeatherSnoop3.0,2014-01-08 15:15:00,
2014-01-08 10:21:00,27.2,11.5,30.64,SSE,154,1.0,-999.0,51,0.00,,,0.00,WeatherSnoop3.0,2014-01-08 15:21:00,
2014-01-08 10:26:00,27.5,11.8,30.64,SE,132,0.0,-999.0,51,0.00,,,0.00,WeatherSnoop3.0,2014-01-08 15:26:00,
2014-01-08 10:31:00,28.0,12.2,30.64,SE,141,0.0,-999.0,51,0.00,,,0.00,WeatherSnoop3.0,2014-01-08 15:31:00,
2014-01-08 10:36:00,28.6,12.3,30.63,SSE,154,1.0,-999.0,50,0.00,,,0.00,WeatherSnoop3.0,2014-01-08 15:36:00,
2014-01-08 10:41:00,28.8,12.1,30.63,SSE,167,0.0,-999.0,49,0.00,,,0.00,WeatherSnoop3.0,2014-01-08 15:41:00,
2014-01-08 10:46:00,29.2,11.5,30.63,SSE,162,3.0,-999.0,47,0.00,,,0.00,WeatherSnoop3.0,2014-01-08 15:46:00,
2014-01-08 10:51:00,29.3,11.6,30.62,SSE,147,2.0,-999.0,47,0.00,,,0.00,WeatherSnoop3.0,2014-01-08 15:51:00,
2014-01-08 10:57:00,29.8,11.6,30.63,WNW,283,1.0,-999.0,46,0.00,,,0.00,WeatherSnoop3.0,2014-01-08 15:57:00,
2014-01-08 11:02:00,29.9,11.2,30.63,SSW,210,0.0,-999.0,45,0.00,,,0.00,WeatherSnoop3.0,2014-01-08 16:02:00,
2014-01-08 11:07:00,29.9,11.2,30.62,SE,138,1.0,-999.0,45,0.00,,,0.00,WeatherSnoop3.0,2014-01-08 16:07:00,
2014-01-08 11:12:00,30.2,11.4,30.62,WNW,282,1.0,-999.0,45,0.00,,,0.00,WeatherSnoop3.0,2014-01-08 16:12:00,
2014-01-08 11:17:00,30.4,11.1,30.61,SE,129,1.0,-999.0,44,0.00,,,0.00,WeatherSnoop3.0,2014-01-08 16:17:00,
2014-01-08 11:22:00,30.9,10.5,30.61,SE,137,1.0,-999.0,42,0.00,,,0.00,WeatherSnoop3.0,2014-01-08 16:22:00,
2014-01-08 11:27:00,31.1,10.7,30.60,WSW,257,0.0,-999.0,42,0.00,,,0.00,WeatherSnoop3.0,2014-01-08 16:27:00,
2014-01-08 11:32:00,31.3,10.9,30.60,North,351,0.0,-999.0,42,0.00,,,0.00,WeatherSnoop3.0,2014-01-08 16:32:00,
2014-01-08 11:37:00,31.9,12.5,30.60,SE,133,1.0,-999.0,44,0.00,,,0.00,WeatherSnoop3.0,2014-01-08 16:37:00,
2014-01-08 11:42:00,32.4,11.9,30.60,SW,228,3.0,-999.0,42,0.00,,,0.00,WeatherSnoop3.0,2014-01-08 16:42:00,
2014-01-08 11:47:00,32.5,11.4,30.59,SW,228,0.0,-999.0,41,0.00,,,0.00,WeatherSnoop3.0,2014-01-08 16:47:00,
2014-01-08 11:53:00,33.0,11.9,30.59,WNW,297,1.0,-999.0,41,0.00,,,0.00,WeatherSnoop3.0,2014-01-08 16:53:00,
2014-01-08 11:58:00,33.1,12.0,30.58,SE,142,1.0,-999.0,41,0.00,,,0.00,WeatherSnoop3.0,2014-01-08 16:58:00,
2014-01-08 12:03:00,33.3,11.6,30.58,West,281,0.0,-999.0,40,0.00,,,0.00,WeatherSnoop3.0,2014-01-08 17:03:00,
2014-01-08 12:08:00,33.5,12.4,30.58,ENE,61,0.0,-999.0,41,0.00,,,0.00,WeatherSnoop3.0,2014-01-08 17:08:00,
2014-01-08 12:13:00,34.0,12.8,30.57,SSW,204,0.0,-999.0,41,0.00,,,0.00,WeatherSnoop3.0,2014-01-08 17:13:00,
2014-01-08 12:18:00,34.5,12.1,30.57,SE,139,2.0,-999.0,39,0.00,,,0.00,WeatherSnoop3.0,2014-01-08 17:18:00,
2014-01-08 12:23:00,34.7,12.3,30.56,South,183,3.0,-999.0,39,0.00,,,0.00,WeatherSnoop3.0,2014-01-08 17:23:00,
2014-01-08 12:28:00,35.0,13.7,30.56,WNW,293,1.0,-999.0,41,0.00,,,0.00,WeatherSnoop3.0,2014-01-08 17:28:00,
2014-01-08 12:33:00,35.7,12.0,30.56,South,172,2.0,-999.0,37,0.00,,,0.00,WeatherSnoop3.0,2014-01-08 17:33:00,
2014-01-08 12:39:00,36.0,11.0,30.56,WNW,287,0.0,-999.0,35,0.00,,,0.00,WeatherSnoop3.0,2014-01-08 17:39:00,
2014-01-08 12:44:00,36.5,11.5,30.55,SSW,205,1.0,-999.0,35,0.00,,,0.00,WeatherSnoop3.0,2014-01-08 17:44:00,
2014-01-08 12:49:00,36.9,11.8,30.55,NNW,328,0.0,-999.0,35,0.00,,,0.00,WeatherSnoop3.0,2014-01-08 17:49:00,
2014-01-08 12:54:00,38.0,11.5,30.54,WNW,283,1.0,-999.0,33,0.00,,,0.00,WeatherSnoop3.0,2014-01-08 17:54:00,
2014-01-08 12:59:00,37.7,10.5,30.54,SSE,147,2.0,-999.0,32,0.00,,,0.00,WeatherSnoop3.0,2014-01-08 17:59:00,
2014-01-08 13:04:00,37.9,11.4,30.54,North,6,1.0,-999.0,33,0.00,,,0.00,WeatherSnoop3.0,2014-01-08 18:04:00,
2014-01-08 13:09:00,39.5,12.8,30.54,WNW,283,0.0,-999.0,33,0.00,,,0.00,WeatherSnoop3.0,2014-01-08 18:09:00,
2014-01-08 13:14:00,40.0,11.1,30.54,SE,134,3.0,-999.0,30,0.00,,,0.00,WeatherSnoop3.0,2014-01-08 18:14:00,
2014-01-08 13:20:00,39.7,11.6,30.54,SSE,155,1.0,-999.0,31,0.00,,,0.00,WeatherSnoop3.0,2014-01-08 18:20:00,
2014-01-08 13:25:00,39.7,10.8,30.54,WSW,249,1.0,-999.0,30,0.00,,,0.00,WeatherSnoop3.0,2014-01-08 18:25:00,
2014-01-08 13:30:00,40.0,11.1,30.53,ENE,70,2.0,-999.0,30,0.00,,,0.00,WeatherSnoop3.0,2014-01-08 18:30:00,
2014-01-08 13:35:00,40.0,11.1,30.53,SE,127,1.0,-999.0,30,0.00,,,0.00,WeatherSnoop3.0,2014-01-08 18:35:00,
2014-01-08 13:40:00,40.9,11.9,30.53,WSW,250,0.0,-999.0,30,0.00,,,0.00,WeatherSnoop3.0,2014-01-08 18:40:00,
2014-01-08 13:45:00,41.1,11.3,30.53,SE,141,1.0,-999.0,29,0.00,,,0.00,WeatherSnoop3.0,2014-01-08 18:45:00,
2014-01-08 13:50:00,41.5,12.4,30.54,WSW,245,2.0,-999.0,30,0.00,,,0.00,WeatherSnoop3.0,2014-01-08 18:50:00,
2014-01-08 13:55:00,41.7,11.0,30.53,SSE,160,2.0,-999.0,28,0.00,,,0.00,WeatherSnoop3.0,2014-01-08 18:55:00,
2014-01-08 14:00:00,41.8,11.9,30.53,ENE,71,0.0,-999.0,29,0.00,,,0.00,WeatherSnoop3.0,2014-01-08 19:00:00,
2014-01-08 14:05:00,41.8,11.9,30.53,SSE,147,1.0,-999.0,29,0.00,,,0.00,WeatherSnoop3.0,2014-01-08 19:05:00,
2014-01-08 14:11:00,41.4,11.6,30.53,SE,126,2.0,-999.0,29,0.00,,,0.00,WeatherSnoop3.0,2014-01-08 19:11:00,
2014-01-08 14:16:00,41.6,12.5,30.52,SW,221,3.0,-999.0,30,0.00,,,0.00,WeatherSnoop3.0,2014-01-08 19:16:00,
2014-01-08 14:21:00,41.6,10.9,30.53,SE,130,3.0,-999.0,28,0.00,,,0.00,WeatherSnoop3.0,2014-01-08 19:21:00,
2014-01-08 14:26:00,41.4,11.6,30.52,ESE,120,2.0,-999.0,29,0.00,,,0.00,WeatherSnoop3.0,2014-01-08 19:26:00,
2014-01-08 14:31:00,41.3,11.5,30.53,SE,132,2.0,-999.0,29,0.00,,,0.00,WeatherSnoop3.0,2014-01-08 19:31:00,
2014-01-08 14:36:00,41.1,12.1,30.53,SSW,208,2.0,-999.0,30,0.00,,,0.00,WeatherSnoop3.0,2014-01-08 19:36:00,
2014-01-08 14:41:00,41.0,11.2,30.53,SSE,149,2.0,-999.0,29,0.00,,,0.00,WeatherSnoop3.0,2014-01-08 19:41:00,
2014-01-08 14:46:00,40.7,11.7,30.52,SE,142,2.0,-999.0,30,0.00,,,0.00,WeatherSnoop3.0,2014-01-08 19:46:00,
2014-01-08 14:52:00,40.7,11.7,30.52,South,180,2.0,-999.0,30,0.00,,,0.00,WeatherSnoop3.0,2014-01-08 19:52:00,
2014-01-08 14:57:00,40.6,11.6,30.52,ENE,65,3.0,-999.0,30,0.00,,,0.00,WeatherSnoop3.0,2014-01-08 19:57:00,
2014-01-08 15:02:00,40.6,11.6,30.52,ESE,118,2.0,-999.0,30,0.00,,,0.00,WeatherSnoop3.0,2014-01-08 20:02:00,
2014-01-08 15:07:00,40.5,12.3,30.53,ESE,105,3.0,-999.0,31,0.00,,,0.00,WeatherSnoop3.0,2014-01-08 20:07:00,
2014-01-08 15:12:00,40.6,12.4,30.52,South,189,2.0,-999.0,31,0.00,,,0.00,WeatherSnoop3.0,2014-01-08 20:12:00,
2014-01-08 15:17:00,40.7,11.7,30.52,South,176,3.0,-999.0,30,0.00,,,0.00,WeatherSnoop3.0,2014-01-08 20:17:00,
2014-01-08 15:22:00,40.4,11.4,30.53,WSW,244,2.0,-999.0,30,0.00,,,0.00,WeatherSnoop3.0,2014-01-08 20:22:00,
2014-01-08 15:28:00,40.5,12.3,30.53,ESE,112,2.0,-999.0,31,0.00,,,0.00,WeatherSnoop3.0,2014-01-08 20:28:00,
2014-01-08 15:33:00,40.8,11.8,30.53,ESE,110,3.0,-999.0,30,0.00,,,0.00,WeatherSnoop3.0,2014-01-08 20:33:00,
2014-01-08 15:38:00,40.8,11.8,30.53,SSW,205,3.0,-999.0,30,0.00,,,0.00,WeatherSnoop3.0,2014-01-08 20:38:00,
2014-01-08 15:43:00,40.7,11.7,30.53,ESE,118,2.0,-999.0,30,0.00,,,0.00,WeatherSnoop3.0,2014-01-08 20:43:00,
2014-01-08 15:48:00,40.9,12.6,30.53,South,190,2.0,-999.0,31,0.00,,,0.00,WeatherSnoop3.0,2014-01-08 20:48:00,
2014-01-08 15:53:00,40.9,11.9,30.53,South,179,3.0,-999.0,30,0.00,,,0.00,WeatherSnoop3.0,2014-01-08 20:53:00,
2014-01-08 15:58:00,40.8,11.8,30.53,SE,135,2.0,-999.0,30,0.00,,,0.00,WeatherSnoop3.0,2014-01-08 20:58:00,
2014-01-08 16:03:00,40.9,12.6,30.53,West,263,1.0,-999.0,31,0.00,,,0.00,WeatherSnoop3.0,2014-01-08 21:03:00,
2014-01-08 16:08:00,40.8,13.3,30.53,SSE,160,2.0,-999.0,32,0.00,,,0.00,WeatherSnoop3.0,2014-01-08 21:08:00,
2014-01-08 16:14:00,40.7,12.4,30.53,SE,134,1.0,-999.0,31,0.00,,,0.00,WeatherSnoop3.0,2014-01-08 21:14:00,
2014-01-08 16:19:00,40.6,13.1,30.53,South,172,3.0,-999.0,32,0.00,,,0.00,WeatherSnoop3.0,2014-01-08 21:19:00,
2014-01-08 16:24:00,40.6,13.1,30.53,SSW,200,1.0,-999.0,32,0.00,,,0.00,WeatherSnoop3.0,2014-01-08 21:24:00,
2014-01-08 16:29:00,40.4,12.2,30.53,SW,215,4.0,-999.0,31,0.00,,,0.00,WeatherSnoop3.0,2014-01-08 21:29:00,
2014-01-08 16:34:00,40.4,12.2,30.53,South,183,3.0,-999.0,31,0.00,,,0.00,WeatherSnoop3.0,2014-01-08 21:34:00,
2014-01-08 16:39:00,40.3,12.1,30.53,SSE,162,1.0,-999.0,31,0.00,,,0.00,WeatherSnoop3.0,2014-01-08 21:39:00,
2014-01-08 16:44:00,40.1,12.6,30.53,SSW,200,1.0,-999.0,32,0.00,,,0.00,WeatherSnoop3.0,2014-01-08 21:44:00,
2014-01-08 16:50:00,40.0,12.6,30.53,SSW,197,2.0,-999.0,32,0.00,,,0.00,WeatherSnoop3.0,2014-01-08 21:50:00,
2014-01-08 16:55:00,39.8,12.4,30.53,SSE,153,0.0,-999.0,32,0.00,,,0.00,WeatherSnoop3.0,2014-01-08 21:55:00,
2014-01-08 17:00:00,39.6,12.9,30.53,South,176,1.0,-999.0,33,0.00,,,0.00,WeatherSnoop3.0,2014-01-08 22:00:00,
2014-01-08 17:05:00,39.4,13.4,30.53,SSE,155,1.0,-999.0,34,0.00,,,0.00,WeatherSnoop3.0,2014-01-08 22:05:00,
2014-01-08 17:10:00,39.0,12.4,30.53,SE,142,2.0,-999.0,33,0.00,,,0.00,WeatherSnoop3.0,2014-01-08 22:10:00,
2014-01-08 17:15:00,38.9,12.3,30.54,SSW,200,1.0,-999.0,33,0.00,,,0.00,WeatherSnoop3.0,2014-01-08 22:15:00,
2014-01-08 17:20:00,38.7,12.1,30.53,SSW,194,1.0,-999.0,33,0.00,,,0.00,WeatherSnoop3.0,2014-01-08 22:20:00,
2014-01-08 17:25:00,38.4,11.8,30.53,SSW,194,0.0,-999.0,33,0.00,,,0.00,WeatherSnoop3.0,2014-01-08 22:25:00,
2014-01-08 17:30:00,38.1,12.9,30.53,SSW,194,0.0,-999.0,35,0.00,,,0.00,WeatherSnoop3.0,2014-01-08 22:30:00,
2014-01-08 17:36:00,37.7,13.2,30.53,SSW,194,0.0,-999.0,36,0.00,,,0.00,WeatherSnoop3.0,2014-01-08 22:36:00,
2014-01-08 17:41:00,37.1,12.6,30.53,SSW,194,0.0,-999.0,36,0.00,,,0.00,WeatherSnoop3.0,2014-01-08 22:41:00,
2014-01-08 17:46:00,36.4,12.6,30.54,SSW,195,0.0,-999.0,37,0.00,,,0.00,WeatherSnoop3.0,2014-01-08 22:46:00,
2014-01-08 17:51:00,35.9,12.2,30.54,SSW,194,0.0,-999.0,37,0.00,,,0.00,WeatherSnoop3.0,2014-01-08 22:51:00,
2014-01-08 17:56:00,35.5,12.4,30.53,SSW,194,0.0,-999.0,38,0.00,,,0.00,WeatherSnoop3.0,2014-01-08 22:56:00,
2014-01-08 18:01:00,34.9,13.1,30.53,SSW,194,0.0,-999.0,40,0.00,,,0.00,WeatherSnoop3.0,2014-01-08 23:01:00,
2014-01-08 18:06:00,34.4,12.6,30.54,SSW,195,0.0,-999.0,40,0.00,,,0.00,WeatherSnoop3.0,2014-01-08 23:06:00,
2014-01-08 18:12:00,33.9,13.3,30.53,SSW,194,0.0,-999.0,42,0.00,,,0.00,WeatherSnoop3.0,2014-01-08 23:12:00,
2014-01-08 18:17:00,33.5,14.0,30.54,SSW,194,0.0,-999.0,44,0.00,,,0.00,WeatherSnoop3.0,2014-01-08 23:17:00,
2014-01-08 18:22:00,33.3,15.8,30.53,SSW,194,0.0,-999.0,48,0.00,,,0.00,WeatherSnoop3.0,2014-01-08 23:22:00,
2014-01-08 18:27:00,32.7,14.7,30.53,SSW,194,0.0,-999.0,47,0.00,,,0.00,WeatherSnoop3.0,2014-01-08 23:27:00,
2014-01-08 18:32:00,32.5,14.5,30.53,SSW,194,0.0,-999.0,47,0.00,,,0.00,WeatherSnoop3.0,2014-01-08 23:32:00,
2014-01-08 18:37:00,32.3,14.4,30.53,SSW,194,0.0,-999.0,47,0.00,,,0.00,WeatherSnoop3.0,2014-01-08 23:37:00,
2014-01-08 18:42:00,32.1,14.7,30.53,SSW,194,0.0,-999.0,48,0.00,,,0.00,WeatherSnoop3.0,2014-01-08 23:42:00,
2014-01-08 18:47:00,32.0,14.1,30.53,SSW,194,0.0,-999.0,47,0.00,,,0.00,WeatherSnoop3.0,2014-01-08 23:47:00,
2014-01-08 18:52:00,31.9,14.5,30.53,SSW,194,0.0,-999.0,48,0.00,,,0.00,WeatherSnoop3.0,2014-01-08 23:52:00,
2014-01-08 18:57:00,31.9,14.9,30.53,SSW,194,0.0,-999.0,49,0.00,,,0.00,WeatherSnoop3.0,2014-01-08 23:57:00,
2014-01-08 19:02:00,32.0,14.6,30.54,SSW,193,0.0,-999.0,48,0.00,,,0.00,WeatherSnoop3.0,2014-01-09 00:02:00,
2014-01-08 19:08:00,32.0,14.1,30.54,SE,139,0.0,-999.0,47,0.00,,,0.00,WeatherSnoop3.0,2014-01-09 00:08:00,
2014-01-08 19:13:00,32.3,14.4,30.54,SE,141,0.0,-999.0,47,0.00,,,0.00,WeatherSnoop3.0,2014-01-09 00:13:00,
2014-01-08 19:18:00,32.3,13.9,30.54,SE,138,0.0,-999.0,46,0.00,,,0.00,WeatherSnoop3.0,2014-01-09 00:18:00,
2014-01-08 19:23:00,32.1,15.1,30.54,SSE,161,0.0,-999.0,49,0.00,,,0.00,WeatherSnoop3.0,2014-01-09 00:23:00,
2014-01-08 19:28:00,32.1,14.7,30.54,SSE,159,0.0,-999.0,48,0.00,,,0.00,WeatherSnoop3.0,2014-01-09 00:28:00,
2014-01-08 19:33:00,32.0,15.0,30.54,SSE,159,0.0,-999.0,49,0.00,,,0.00,WeatherSnoop3.0,2014-01-09 00:33:00,
2014-01-08 19:38:00,31.7,14.8,30.54,SSE,159,0.0,-999.0,49,0.00,,,0.00,WeatherSnoop3.0,2014-01-09 00:38:00,
2014-01-08 19:43:00,31.5,15.0,30.54,SSE,159,0.0,-999.0,50,0.00,,,0.00,WeatherSnoop3.0,2014-01-09 00:43:00,
2014-01-08 19:48:00,31.2,14.8,30.54,SSE,159,0.0,-999.0,50,0.00,,,0.00,WeatherSnoop3.0,2014-01-09 00:48:00,
2014-01-08 19:54:00,31.2,14.3,30.54,SSE,159,0.0,-999.0,49,0.00,,,0.00,WeatherSnoop3.0,2014-01-09 00:54:00,
2014-01-08 19:59:00,31.2,14.3,30.54,SSE,159,0.0,-999.0,49,0.00,,,0.00,WeatherSnoop3.0,2014-01-09 00:59:00,
2014-01-08 20:04:00,31.1,14.7,30.53,SSE,156,0.0,-999.0,50,0.00,,,0.00,WeatherSnoop3.0,2014-01-09 01:04:00,
2014-01-08 20:09:00,30.9,14.5,30.53,SSE,156,0.0,-999.0,50,0.00,,,0.00,WeatherSnoop3.0,2014-01-09 01:09:00,
2014-01-08 20:14:00,30.7,14.3,30.54,SSE,156,0.0,-999.0,50,0.00,,,0.00,WeatherSnoop3.0,2014-01-09 01:14:00,
2014-01-08 20:19:00,30.5,15.4,30.54,SSE,156,0.0,-999.0,53,0.00,,,0.00,WeatherSnoop3.0,2014-01-09 01:19:00,
2014-01-08 20:25:00,30.4,14.5,30.54,SSE,156,0.0,-999.0,51,0.00,,,0.00,WeatherSnoop3.0,2014-01-09 01:25:00,
2014-01-08 20:30:00,30.5,13.6,30.54,SSE,154,0.0,-999.0,49,0.00,,,0.00,WeatherSnoop3.0,2014-01-09 01:30:00,
2014-01-08 20:35:00,30.8,14.4,30.54,SSE,153,0.0,-999.0,50,0.00,,,0.00,WeatherSnoop3.0,2014-01-09 01:35:00,
2014-01-08 20:40:00,30.5,15.0,30.55,SSE,154,0.0,-999.0,52,0.00,,,0.00,WeatherSnoop3.0,2014-01-09 01:40:00,
2014-01-08 20:45:00,30.2,14.3,30.54,SSE,153,0.0,-999.0,51,0.00,,,0.00,WeatherSnoop3.0,2014-01-09 01:45:00,
2014-01-08 20:50:00,30.2,13.8,30.54,SSE,153,0.0,-999.0,50,0.00,,,0.00,WeatherSnoop3.0,2014-01-09 01:50:00,
2014-01-08 20:55:00,30.2,13.8,30.55,SSE,153,0.0,-999.0,50,0.00,,,0.00,WeatherSnoop3.0,2014-01-09 01:55:00,
2014-01-08 21:00:00,30.1,13.7,30.55,SSE,153,0.0,-999.0,50,0.00,,,0.00,WeatherSnoop3.0,2014-01-09 02:00:00,
2014-01-08 21:05:00,30.0,14.5,30.55,SSE,153,0.0,-999.0,52,0.00,,,0.00,WeatherSnoop3.0,2014-01-09 02:05:00,
2014-01-08 21:10:00,29.9,14.9,30.55,SSE,154,0.0,-999.0,53,0.00,,,0.00,WeatherSnoop3.0,2014-01-09 02:10:00,
2014-01-08 21:15:00,29.9,14.0,30.55,SSE,154,0.0,-999.0,51,0.00,,,0.00,WeatherSnoop3.0,2014-01-09 02:15:00,
2014-01-08 21:20:00,29.9,14.0,30.55,SSE,154,0.0,-999.0,51,0.00,,,0.00,WeatherSnoop3.0,2014-01-09 02:20:00,
2014-01-08 21:25:00,30.0,14.5,30.55,SSE,151,0.0,-999.0,52,0.00,,,0.00,WeatherSnoop3.0,2014-01-09 02:25:00,
2014-01-08 21:30:00,29.9,14.9,30.55,SSE,150,0.0,-999.0,53,0.00,,,0.00,WeatherSnoop3.0,2014-01-09 02:30:00,
2014-01-08 21:35:00,29.9,14.9,30.55,SE,142,0.0,-999.0,53,0.00,,,0.00,WeatherSnoop3.0,2014-01-09 02:35:00,
2014-01-08 21:41:00,29.9,14.4,30.55,SE,142,0.0,-999.0,52,0.00,,,0.00,WeatherSnoop3.0,2014-01-09 02:41:00,
2014-01-08 21:46:00,30.1,14.2,30.55,SSE,166,0.0,-999.0,51,0.00,,,0.00,WeatherSnoop3.0,2014-01-09 02:46:00,
2014-01-08 21:51:00,30.3,15.2,30.55,SSE,166,0.0,-999.0,53,0.00,,,0.00,WeatherSnoop3.0,2014-01-09 02:51:00,
2014-01-08 21:56:00,30.2,14.3,30.54,SE,134,0.0,-999.0,51,0.00,,,0.00,WeatherSnoop3.0,2014-01-09 02:56:00,
2014-01-08 22:01:00,30.1,14.6,30.54,SE,134,0.0,-999.0,52,0.00,,,0.00,WeatherSnoop3.0,2014-01-09 03:01:00,
2014-01-08 22:06:00,30.0,15.8,30.54,SE,135,0.0,-999.0,55,0.00,,,0.00,WeatherSnoop3.0,2014-01-09 03:06:00,
2014-01-08 22:11:00,29.9,14.4,30.54,SE,135,0.0,-999.0,52,0.00,,,0.00,WeatherSnoop3.0,2014-01-09 03:11:00,
2014-01-08 22:16:00,29.9,15.7,30.54,SE,136,0.0,-999.0,55,0.00,,,0.00,WeatherSnoop3.0,2014-01-09 03:16:00,
2014-01-08 22:21:00,30.0,14.5,30.54,SE,135,0.0,-999.0,52,0.00,,,0.00,WeatherSnoop3.0,2014-01-09 03:21:00,
2014-01-08 22:26:00,30.1,13.7,30.54,SE,135,0.0,-999.0,50,0.00,,,0.00,WeatherSnoop3.0,2014-01-09 03:26:00,
2014-01-08 22:31:00,30.0,13.6,30.54,SE,135,0.0,-999.0,50,0.00,,,0.00,WeatherSnoop3.0,2014-01-09 03:31:00,
2014-01-08 22:36:00,29.7,14.3,30.54,SE,135,0.0,-999.0,52,0.00,,,0.00,WeatherSnoop3.0,2014-01-09 03:36:00,
2014-01-08 22:41:00,29.4,14.0,30.54,SE,135,0.0,-999.0,52,0.00,,,0.00,WeatherSnoop3.0,2014-01-09 03:41:00,
2014-01-08 22:47:00,29.3,13.4,30.55,SE,136,0.0,-999.0,51,0.00,,,0.00,WeatherSnoop3.0,2014-01-09 03:47:00,
2014-01-08 22:52:00,29.1,15.0,30.54,SE,135,0.0,-999.0,55,0.00,,,0.00,WeatherSnoop3.0,2014-01-09 03:52:00,
2014-01-08 22:57:00,28.9,14.8,30.55,SE,135,0.0,-999.0,55,0.00,,,0.00,WeatherSnoop3.0,2014-01-09 03:57:00,
2014-01-08 23:02:00,28.7,14.2,30.54,SE,135,0.0,-999.0,54,0.00,,,0.00,WeatherSnoop3.0,2014-01-09 04:02:00,
2014-01-08 23:07:00,28.7,13.8,30.54,SE,135,0.0,-999.0,53,0.00,,,0.00,WeatherSnoop3.0,2014-01-09 04:07:00,
2014-01-08 23:12:00,28.8,13.9,30.54,SE,136,0.0,-999.0,53,0.00,,,0.00,WeatherSnoop3.0,2014-01-09 04:12:00,
2014-01-08 23:17:00,28.9,15.2,30.54,SE,135,0.0,-999.0,56,0.00,,,0.00,WeatherSnoop3.0,2014-01-09 04:17:00,
2014-01-08 23:22:00,28.9,16.4,30.54,SE,135,0.0,-999.0,59,0.00,,,0.00,WeatherSnoop3.0,2014-01-09 04:22:00,
2014-01-08 23:27:00,28.7,15.8,30.54,SE,135,0.0,-999.0,58,0.00,,,0.00,WeatherSnoop3.0,2014-01-09 04:27:00,
2014-01-08 23:32:00,28.5,14.8,30.54,SE,135,0.0,-999.0,56,0.00,,,0.00,WeatherSnoop3.0,2014-01-09 04:32:00,
2014-01-08 23:37:00,28.5,14.8,30.54,SE,135,0.0,-999.0,56,0.00,,,0.00,WeatherSnoop3.0,2014-01-09 04:37:00,
2014-01-08 23:42:00,28.4,15.9,30.54,SE,136,0.0,-999.0,59,0.00,,,0.00,WeatherSnoop3.0,2014-01-09 04:42:00,
2014-01-08 23:47:00,28.3,15.8,30.54,SE,135,0.0,-999.0,59,0.00,,,0.00,WeatherSnoop3.0,2014-01-09 04:47:00,
2014-01-08 23:52:00,28.2,16.5,30.53,SE,136,0.0,-999.0,61,0.00,,,0.00,WeatherSnoop3.0,2014-01-09 04:52:00,
2014-01-08 23:57:00,28.1,16.4,30.53,SE,136,0.0,-999.0,61,0.00,,,0.00,WeatherSnoop3.0,2014-01-09 04:57:00,